[[{"header":{"parameterUnit":"m.s-1","parameterCategory":1,"la1":30.2991,"la2":30.254,"lo1":-89.0895,"lo2":-89.0444,"dy":0.0017,"dx":0.0017,"nx":28,"ny":28,"refTime":"2023-11-07T03:00:00:Z","depth":0,"parameterNumber":2,"parameterNumberName":"U-component_of_WINDS"},"data":[0,0,0,0,0,0,0,0,0,0,0,0,0,0,0,0,0,0,0,0,0,0,0,0,0,0,0,0,0,0,0,0,0,0,0,0,0,0,0,0,0,0,0,0,0,0,0,0,0,0,0,0,0,0,0,0,0,0,0.954,0.954,0,0.9536,0.9536,0.9536,0.9526,0.9526,0.9526,0.9525,0.9521,0.9521,0.9521,0,0,0,0,0,0,0,0,0,0,0,0,0,0.9538,0.9539,0.954,0.954,0.954,0.9536,0.9536,0.9536,0.9526,0.9526,0.9525,0.9525,0.9521,0.9521,0.9521,0,0,0,0,0,0,0,0,0,0,0,0,0,0.9537,0.9539,0.954,0.9535,0.9534,0.9536,0.9536,0.9535,0.9526,0.9526,0.9525,0.9525,0.9521,0.9521,0.9521,0.9527,0,0,0.9521,0.9521,0,0,0,0,0,0,0,0,0.9537,0.9537,0.9535,0.9535,0.9534,0.9531,0.9533,0.9533,0.9526,0.9529,0.9525,0.9525,0.9524,0.9524,0.9524,0.9527,0.9527,0.9521,0.9521,0.9521,0.9521,0,0,0,0,0,0,0,0.9537,0.9537,0.9538,0.9535,0.9535,0.9532,0.9531,0.9533,0.9528,0.9529,0.9528,0.9528,0.9524,0.9524,0.9524,0.9527,0.9521,0.9521,0.9521,0.9521,0.9533,0.9534,0,0,0,0,0,0,0.9538,0.9537,0.9538,0.9538,0.9535,0.9532,0.9532,0.9532,0.9528,0.9527,0.9528,0.9527,0.9524,0.9524,0.9524,0.953,0.9521,0.9521,0.9521,0.9533,0.9533,0.9534,0,0,0,0,0,0,0.9538,0.9539,0.9538,0.9538,0.9537,0.9532,0.9533,0.9532,0.9532,0.9528,0.9527,0.9529,0.9524,0.9523,0.9526,0.9529,0.9521,0.9521,0.9533,0.9533,0.9534,0.9543,0,0,0,0,0,0,0.9538,0.9539,0.9541,0.9538,0.9537,0.9541,0.9534,0.9533,0.9533,0.9532,0.9528,0.9527,0.9523,0.9526,0.9526,0.9529,0.9521,0.9532,0.9533,0.9533,0.9542,0.9544,0.9545,0,0,0,0,0,0.9538,0.9544,0.9542,0.9542,0.9541,0.9542,0.9542,0.9537,0.9533,0.9535,0.9532,0.9527,0.9529,0.9526,0.9526,0.953,0.9532,0.9533,0.9533,0.9542,0.9543,0.9545,0,0,0,0,0,0,0.9549,0.9544,0.9541,0.9546,0.9544,0.954,0.9543,0.9539,0.9538,0.9538,0.9532,0.9531,0.9534,0.9532,0.9529,0.9535,0.953,0.953,0.9536,0.9538,0.9539,0.9539,0.9521,0,0,0,0,0,0.9552,0.9553,0.9549,0.9554,0.9553,0.9548,0.9548,0.9545,0.9543,0.9542,0.9539,0.9537,0.9537,0.9537,0.9537,0.9542,0.9541,0.9544,0.9545,0.9547,0.9547,0.9548,0.9549,0.9536,0.9536,0.9536,0,0,0.9558,0.9555,0.9556,0.9555,0.9554,0.9555,0.9548,0.9549,0.955,0.9542,0.9544,0.9542,0.954,0.9543,0.9544,0.9542,0.955,0.9547,0.9548,0.9548,0.9549,0.955,0.9551,0.9536,0.9536,0.9536,0,0,0.9569,0.9568,0.9571,0.9569,0.9567,0.9563,0.9564,0.956,0.9558,0.956,0.9554,0.9555,0.9555,0.9553,0.9552,0.9561,0.9557,0.9562,0.9568,0.9569,0.957,0.9571,0.9573,0.9574,0.9562,0.9562,0.9562,0,0.9576,0.9578,0.9573,0.9575,0.9574,0.9567,0.957,0.9568,0.9566,0.9565,0.9562,0.9562,0.956,0.9562,0.9564,0.9564,0.9564,0.9562,0.957,0.9571,0.9572,0.9574,0.9575,0.9563,0.9563,0.9563,0.9563,0,0.9587,0.9588,0.9591,0.9588,0.9588,0.959,0.9585,0.9585,0.9581,0.9578,0.958,0.9577,0.9575,0.9576,0.9572,0.9577,0.9575,0.9571,0.9566,0.9574,0.9576,0.9577,0.9563,0.9563,0.9563,0.9563,0,0,0.9605,0.9599,0.96,0.9598,0.9594,0.9595,0.9596,0.9595,0.9594,0.9593,0.9593,0.9593,0.9589,0.9588,0.9584,0.9586,0.9592,0.9581,0.9581,0.9583,0.9596,0.9598,0.9599,0.9589,0.9589,0.9589,0.9595,0,0.9614,0.9617,0.9612,0.9615,0.9615,0.9608,0.9609,0.9607,0.9604,0.9603,0.96,0.9599,0.9595,0.9594,0.9595,0.9591,0.9594,0.959,0.9589,0.9589,0.9589,0.96,0.9603,0.9609,0.9596,0.9596,0.9597,0,0.9626,0.9624,0.9627,0.9622,0.9622,0.9624,0.9621,0.9621,0.9618,0.9615,0.9613,0.9609,0.9609,0.9604,0.9604,0.9602,0.9601,0.9599,0.9599,0.9598,0.9593,0.9599,0.9611,0.9612,0.9598,0.9598,0.9598,0,0.9637,0.9636,0.9637,0.9636,0.9631,0.9631,0.9629,0.9625,0.9624,0.9622,0.9621,0.9619,0.9618,0.9617,0.9611,0.9608,0.9612,0.9607,0.9609,0.9609,0.961,0.961,0.9621,0.961,0.961,0.961,0.961,0,0.9648,0.965,0.9642,0.9643,0.9645,0.9639,0.964,0.9637,0.9634,0.9634,0.9628,0.9628,0.9621,0.962,0.9616,0.9616,0.9616,0.9613,0.9612,0.9613,0.9614,0.9612,0.9611,0.961,0.961,0.961,0.961,0,0.966,0.9656,0.9656,0.9651,0.965,0.9651,0.9646,0.9646,0.9642,0.9642,0.9642,0.9636,0.9634,0.9629,0.9626,0.9623,0.9624,0.9622,0.9625,0.9624,0.9627,0.9626,0.9637,0.9638,0.9627,0.9627,0.9627,0,0.9667,0.9669,0.9663,0.9662,0.966,0.9659,0.9658,0.9652,0.9651,0.9647,0.9647,0.9645,0.9643,0.964,0.9635,0.9633,0.9631,0.9635,0.963,0.9631,0.963,0.9629,0.9629,0.9635,0.9636,0.9636,0.9636,0,0.9679,0.9677,0.9675,0.9673,0.9671,0.9669,0.9666,0.9666,0.9659,0.9658,0.9656,0.9654,0.9651,0.9649,0.9645,0.9642,0.9638,0.9637,0.9637,0.9639,0.964,0.9638,0.9627,0.9637,0.9637,0.9637,0.9637,0.9637,0.9689,0.9689,0.9685,0.9683,0.968,0.9678,0.9677,0.9673,0.9672,0.9668,0.9665,0.9663,0.9659,0.9654,0.9651,0.9649,0.9647,0.9648,0.9648,0.9648,0.9648,0.9641,0.9649,0.9649,0.9649,0.9649,0.9649,0,0.97,0.9696,0.9695,0.9691,0.9689,0.9685,0.9682,0.9681,0.9679,0.9676,0.9673,0.9671,0.9668,0.9663,0.966,0.9659,0.9657,0.9659,0.9658,0.9658,0.9651,0.9651,0.9661,0.9661,0.9661,0.9661,0.9661,0.9661,0.9705,0.9705,0.9702,0.97,0.9697,0.9695,0.9693,0.9691,0.9688,0.9685,0.9683,0.9679,0.9675,0.9671,0.9668,0.9667,0.9666,0.9668,0.9666,0.9659,0.9658,0.9657,0.9657,0.9668,0.9668,0.9672,0.9672,0.9672]},{"header":{"parameterUnit":"m.s-1","parameterCategory":1,"la1":30.2991,"la2":30.254,"lo1":-89.0895,"lo2":-89.0444,"dy":0.0017,"dx":0.0017,"nx":28,"ny":28,"refTime":"2023-11-07T03:00:00:Z","depth":0,"parameterNumber":3,"parameterNumberName":"V-component_of_WINDS"},"data":[0,0,0,0,0,0,0,0,0,0,0,0,0,0,0,0,0,0,0,0,0,0,0,0,0,0,0,0,0,0,0,0,0,0,0,0,0,0,0,0,0,0,0,0,0,0,0,0,0,0,0,0,0,0,0,0,0,0,2.0696,2.0695,0,2.0647,2.0646,2.0646,2.0597,2.0597,2.0596,2.0595,2.0543,2.0542,2.0541,0,0,0,0,0,0,0,0,0,0,0,0,0,2.0745,2.0744,2.0696,2.0695,2.0694,2.0647,2.0646,2.0646,2.0597,2.0597,2.0596,2.0595,2.0543,2.0542,2.0541,0,0,0,0,0,0,0,0,0,0,0,0,0,2.0713,2.0744,2.0696,2.0665,2.0662,2.0647,2.0646,2.0645,2.0598,2.0597,2.0596,2.0595,2.0543,2.0542,2.0541,2.0552,0,0,2.0537,2.0536,0,0,0,0,0,0,0,0,2.0715,2.0711,2.067,2.0667,2.0663,2.0627,2.0644,2.0614,2.0598,2.0622,2.0595,2.0594,2.0571,2.0568,2.056,2.0549,2.0547,2.0537,2.0536,2.0536,2.0535,0,0,0,0,0,0,0,2.0717,2.0713,2.0676,2.0669,2.0665,2.0653,2.0647,2.0638,2.0602,2.062,2.0616,2.0611,2.0569,2.0562,2.0559,2.0546,2.0537,2.0536,2.0535,2.0534,2.0543,2.0544,0,0,0,0,0,0,2.0724,2.0715,2.0678,2.0675,2.0687,2.0653,2.0646,2.064,2.0602,2.0596,2.0612,2.0609,2.0564,2.056,2.0557,2.0568,2.0536,2.0534,2.0534,2.0542,2.0543,2.0544,0,0,0,0,0,0,2.0725,2.0721,2.068,2.0694,2.0688,2.0653,2.0646,2.0639,2.0632,2.0597,2.059,2.0611,2.0563,2.0559,2.0554,2.0565,2.0534,2.0533,2.0541,2.0542,2.0543,2.059,0,0,0,0,0,0,2.0727,2.0722,2.0726,2.0694,2.0687,2.0678,2.0646,2.0639,2.063,2.0626,2.0594,2.0588,2.0562,2.0556,2.0553,2.0563,2.0532,2.0539,2.0541,2.0543,2.0587,2.0593,2.0597,0,0,0,0,0,2.0729,2.0741,2.0727,2.0723,2.0692,2.0679,2.0675,2.0646,2.0631,2.0635,2.0613,2.0589,2.0565,2.0556,2.0552,2.0562,2.0538,2.0541,2.0543,2.0585,2.0591,2.0597,0,0,0,0,0,0,2.0773,2.0736,2.072,2.0722,2.0704,2.0671,2.0675,2.0654,2.064,2.0636,2.0601,2.0594,2.0593,2.0577,2.0568,2.0571,2.0548,2.055,2.0582,2.0588,2.0593,2.0596,2.0531,0,0,0,0,0,2.0784,2.0777,2.0744,2.0749,2.0741,2.071,2.0703,2.0683,2.0663,2.0655,2.0632,2.0612,2.06,2.0593,2.058,2.0585,2.0577,2.059,2.0595,2.0599,2.0601,2.0602,2.0607,2.0551,2.0551,2.0551,0,0,2.0804,2.0783,2.0781,2.0758,2.0741,2.0735,2.0704,2.0698,2.0693,2.0653,2.0648,2.0631,2.0607,2.0607,2.0606,2.0593,2.0615,2.0602,2.0606,2.0605,2.0605,2.061,2.0615,2.0552,2.0552,2.0552,0,0,2.0839,2.0822,2.0824,2.0809,2.0786,2.0765,2.0766,2.0736,2.0724,2.0718,2.0688,2.0681,2.0661,2.0646,2.0635,2.0665,2.0643,2.0662,2.0689,2.069,2.0695,2.0699,2.0709,2.0713,2.0664,2.0664,2.0664,0,2.0867,2.0857,2.0828,2.0824,2.0815,2.0781,2.0783,2.0769,2.0742,2.0736,2.0723,2.0699,2.068,2.0676,2.0684,2.0676,2.0675,2.0665,2.0697,2.07,2.0703,2.0713,2.0717,2.0666,2.0666,2.0666,2.0665,0,2.0893,2.0886,2.0891,2.0867,2.0858,2.0858,2.0828,2.0823,2.0804,2.0784,2.0779,2.0756,2.0738,2.0735,2.0716,2.0729,2.0722,2.0704,2.068,2.0712,2.072,2.0724,2.067,2.0669,2.0668,2.0668,0,0,2.0952,2.0914,2.0916,2.0905,2.0878,2.0872,2.087,2.0853,2.0849,2.0832,2.0829,2.0814,2.0797,2.0785,2.0764,2.0766,2.0791,2.0747,2.0745,2.0756,2.0804,2.0818,2.0823,2.0777,2.0777,2.0778,2.0806,0,2.0982,2.0976,2.0951,2.0953,2.0946,2.0915,2.0913,2.0895,2.0877,2.0869,2.0849,2.0839,2.0817,2.081,2.081,2.0788,2.08,2.0786,2.0773,2.0772,2.0779,2.0827,2.0842,2.0869,2.0809,2.081,2.081,0,2.1015,2.1001,2.1003,2.0977,2.0973,2.0972,2.0955,2.0948,2.0927,2.0914,2.0902,2.0879,2.0874,2.0853,2.0846,2.0837,2.083,2.0819,2.0819,2.0816,2.0793,2.0825,2.0877,2.0882,2.0815,2.0814,2.0814,0,2.1058,2.104,2.1039,2.1031,2.1,2.1,2.0987,2.0966,2.0958,2.0943,2.0938,2.0922,2.0914,2.0902,2.0876,2.0863,2.0872,2.0848,2.086,2.0861,2.0863,2.0863,2.0914,2.0859,2.0859,2.0859,2.0859,0,2.1093,2.1095,2.1058,2.1058,2.1059,2.103,2.1032,2.1016,2.0998,2.0993,2.0964,2.096,2.0925,2.0917,2.0896,2.0894,2.089,2.0879,2.0873,2.0881,2.0883,2.0876,2.0873,2.086,2.086,2.086,2.086,0,2.1141,2.1116,2.1113,2.1085,2.1078,2.108,2.1055,2.1053,2.1034,2.1029,2.1026,2.0995,2.0985,2.0957,2.0939,2.0925,2.0928,2.0917,2.0935,2.0931,2.0945,2.0944,2.0993,2.0998,2.0941,2.0941,2.0942,0,2.1164,2.1166,2.1138,2.1133,2.1122,2.1114,2.1107,2.1078,2.1071,2.1049,2.105,2.1037,2.1025,2.1009,2.0985,2.0971,2.096,2.0978,2.0957,2.0966,2.096,2.096,2.096,2.0982,2.0983,2.0984,2.0984,0,2.1209,2.1197,2.1188,2.1174,2.1166,2.1154,2.114,2.1138,2.1106,2.1099,2.1089,2.108,2.1062,2.1049,2.1032,2.1017,2.0995,2.0991,2.0993,2.1001,2.1011,2.1006,2.0947,2.099,2.0989,2.0989,2.0989,2.0988,2.1245,2.1245,2.1226,2.1216,2.1203,2.1191,2.1188,2.117,2.1161,2.1144,2.1128,2.1119,2.1099,2.1074,2.1061,2.1054,2.1042,2.1045,2.1046,2.1047,2.105,2.1013,2.105,2.105,2.105,2.105,2.1049,0,2.1288,2.1274,2.1266,2.1248,2.1241,2.1223,2.1207,2.1202,2.1195,2.1178,2.1168,2.1156,2.1144,2.112,2.1106,2.1104,2.1094,2.1101,2.1101,2.1098,2.1061,2.1061,2.111,2.111,2.111,2.111,2.111,2.111,2.1309,2.1308,2.1294,2.1287,2.1273,2.1265,2.1257,2.1246,2.1233,2.1222,2.1212,2.1197,2.1178,2.1162,2.115,2.1144,2.114,2.115,2.114,2.1106,2.1101,2.1095,2.1095,2.115,2.115,2.1177,2.1178,2.1178]}]]